WNISAT-1

Last updated on Sun Jun 21 2026 00:03:50 GMT+0000 (Coordinated Universal Time)

1 39423U 13066H 26171.43652856 .00000730 00000+0 14157-3 0 9993 2 39423 97.7206 320.3622 0162147 221.2923 137.5924 14.58067087667202
UTC large
Height (km)
Speed (km/s)
/
Latitude / Longitude
Inclination (degrees)
Orbital Period (minutes)
Azimuth
Elevation
Range (km)
Doppler Factor

Next 0 passes for location: London (51.5072 / 0.1276)

No passes found over London.
WNISAT-1